| time (UTC) | temp C | wind direction | speed KPH | gust KPH | rain 1hr cm | rain 24hr cm | rain mn cm | humidity % | barometer mb |
| 20260505034548 | 17 | 53 | 0.0 | 1.6 | 0.00 | 0.00 | 0.00 | 73 | 1017.8 |
| 20260505034042 | 17 | 0 | 0.0 | 1.6 | 0.00 | 0.00 | 0.00 | 73 | 1017.8 |
| 20260505033544 | 17 | 68 | 0.0 | 1.6 | 0.00 | 0.00 | 0.00 | 73 | 1017.9 |
| 20260505033053 | 17 | 68 | 0.0 | 3.2 | 0.00 | 0.00 | 0.00 | 73 | 1017.8 |
| 20260505032540 | 18 | 58 | 0.0 | 3.2 | 0.00 | 0.00 | 0.00 | 72 | 1017.8 |
| 20260505032046 | 18 | 55 | 1.6 | 4.8 | 0.00 | 0.00 | 0.00 | 72 | 1017.8 |
| 20260505031600 | 18 | 68 | 1.6 | 4.8 | 0.00 | 0.00 | 0.00 | 71 | 1017.9 |
| 20260505031043 | 18 | 88 | 3.2 | 4.8 | 0.00 | 0.00 | 0.00 | 71 | 1017.9 |
| 20260505030544 | 18 | 76 | 1.6 | 4.8 | 0.00 | 0.00 | 0.00 | 70 | 1017.9 |
| 20260505030051 | 18 | 72 | 1.6 | 6.4 | 0.00 | 0.00 | 0.00 | 70 | 1017.8 |
| 20260505025544 | 18 | 93 | 3.2 | 6.4 | 0.00 | 0.00 | 0.00 | 70 | 1017.8 |
| 20260505025044 | 18 | 117 | 3.2 | 6.4 | 0.00 | 0.00 | 0.00 | 70 | 1017.8 |
| 20260505024550 | 18 | 84 | 3.2 | 6.4 | 0.00 | 0.00 | 0.00 | 70 | 1017.8 |
| 20260505024042 | 18 | 80 | 3.2 | 6.4 | 0.00 | 0.00 | 0.00 | 70 | 1017.7 |
| 20260505023548 | 18 | 70 | 3.2 | 6.4 | 0.00 | 0.00 | 0.00 | 70 | 1017.8 |
| 20260505023052 | 18 | 79 | 3.2 | 6.4 | 0.00 | 0.00 | 0.00 | 70 | 1017.8 |
| 20260505022544 | 18 | 88 | 3.2 | 6.4 | 0.00 | 0.00 | 0.00 | 70 | 1017.8 |
| 20260505022044 | 18 | 96 | 3.2 | 6.4 | 0.00 | 0.00 | 0.00 | 70 | 1017.8 |
| 20260505021558 | 18 | 79 | 3.2 | 6.4 | 0.00 | 0.00 | 0.00 | 69 | 1017.8 |
| 20260505021045 | 18 | 50 | 1.6 | 6.4 | 0.00 | 0.00 | 0.00 | 69 | 1017.8 |
| 20260505020544 | 18 | 93 | 1.6 | 4.8 | 0.00 | 0.00 | 0.00 | 69 | 1017.7 |
| 20260505020058 | 19 | 95 | 1.6 | 6.4 | 0.00 | 0.00 | 0.00 | 69 | 1017.8 |
| 20260505015545 | 19 | 68 | 3.2 | 6.4 | 0.00 | 0.00 | 0.00 | 68 | 1017.7 |
| 20260505015045 | 19 | 81 | 1.6 | 6.4 | 0.00 | 0.00 | 0.00 | 68 | 1017.8 |
| 20260505014609 | 19 | 100 | 1.6 | 4.8 | 0.00 | 0.00 | 0.00 | 68 | 1017.7 |
| 20260505014043 | 19 | 111 | 1.6 | 6.4 | 0.00 | 0.00 | 0.00 | 68 | 1017.8 |
| 20260505013542 | 20 | 106 | 3.2 | 6.4 | 0.00 | 0.00 | 0.00 | 67 | 1017.7 |
| 20260505013053 | 20 | 78 | 1.6 | 6.4 | 0.00 | 0.00 | 0.00 | 67 | 1017.6 |
| 20260505012542 | 20 | 93 | 3.2 | 6.4 | 0.00 | 0.00 | 0.00 | 66 | 1017.6 |
| 20260505012042 | 20 | 51 | 1.6 | 6.4 | 0.00 | 0.00 | 0.00 | 66 | 1017.6 |
| 20260505011603 | 20 | 106 | 1.6 | 6.4 | 0.00 | 0.00 | 0.00 | 66 | 1017.6 |
| 20260505011043 | 20 | 111 | 3.2 | 11.3 | 0.00 | 0.00 | 0.00 | 65 | 1017.5 |
| 20260505010544 | 20 | 67 | 3.2 | 11.3 | 0.00 | 0.00 | 0.00 | 65 | 1017.4 |
| 20260505010051 | 20 | 102 | 4.8 | 9.7 | 0.00 | 0.00 | 0.00 | 64 | 1017.4 |
| 20260505005543 | 20 | 62 | 3.2 | 11.3 | 0.00 | 0.00 | 0.00 | 64 | 1017.4 |
| 20260505005043 | 20 | 73 | 4.8 | 11.3 | 0.00 | 0.00 | 0.00 | 64 | 1017.4 |
| 20260505004559 | 20 | 89 | 4.8 | 12.9 | 0.00 | 0.00 | 0.00 | 64 | 1017.3 |
| 20260505004042 | 20 | 150 | 3.2 | 16.1 | 0.00 | 0.00 | 0.00 | 63 | 1017.3 |
| 20260505003544 | 21 | 79 | 4.8 | 16.1 | 0.00 | 0.00 | 0.00 | 63 | 1017.3 |
| 20260505003055 | 21 | 74 | 6.4 | 16.1 | 0.00 | 0.00 | 0.00 | 63 | 1017.2 |
| 20260505002547 | 21 | 65 | 4.8 | 16.1 | 0.00 | 0.00 | 0.00 | 62 | 1017.2 |
| 20260505002044 | 21 | 91 | 6.4 | 16.1 | 0.00 | 0.00 | 0.00 | 62 | 1017.2 |
| 20260505001621 | 21 | 138 | 4.8 | 12.9 | 0.00 | 0.00 | 0.00 | 62 | 1017.3 |
| 20260505001042 | 21 | 10 | 6.4 | 19.3 | 0.00 | 0.00 | 0.00 | 61 | 1017.2 |
| 20260505000543 | 21 | 55 | 3.2 | 19.3 | 0.00 | 0.00 | 0.00 | 61 | 1017.2 |
| 20260505000126 | 21 | 5 | 9.7 | 19.3 | 0.00 | 0.00 | 0.00 | 60 | 1017.2 |
| 20260504235544 | 21 | 85 | 6.4 | 17.7 | 0.00 | 0.00 | 0.00 | 60 | 1017.0 |
| 20260504235042 | 21 | 103 | 9.7 | 17.7 | 0.00 | 0.00 | 0.00 | 60 | 1016.8 |
| 20260504234609 | 22 | 112 | 4.8 | 14.5 | 0.00 | 0.00 | 0.00 | 59 | 1016.8 |
| 20260504234044 | 22 | 47 | 8.0 | 22.5 | 0.00 | 0.00 | 0.00 | 59 | 1016.8 |
| 20260504233547 | 22 | 87 | 9.7 | 22.5 | 0.00 | 0.00 | 0.00 | 58 | 1016.7 |
| 20260504233106 | 22 | 155 | 9.7 | 24.1 | 0.00 | 0.00 | 0.00 | 58 | 1016.7 |
| 20260504232545 | 22 | 55 | 9.7 | 24.1 | 0.00 | 0.00 | 0.00 | 57 | 1016.6 |
| 20260504232042 | 22 | 28 | 11.3 | 24.1 | 0.00 | 0.00 | 0.00 | 56 | 1016.7 |
| 20260504231557 | 22 | 142 | 11.3 | 19.3 | 0.00 | 0.00 | 0.00 | 56 | 1016.6 |
| 20260504231042 | 22 | 32 | 9.7 | 19.3 | 0.00 | 0.00 | 0.00 | 55 | 1016.5 |
| 20260504230542 | 23 | 72 | 9.7 | 20.9 | 0.00 | 0.00 | 0.00 | 55 | 1016.5 |
| 20260504230048 | 23 | 95 | 9.7 | 20.9 | 0.00 | 0.00 | 0.00 | 55 | 1016.4 |
| 20260504225542 | 23 | 84 | 11.3 | 19.3 | 0.00 | 0.00 | 0.00 | 54 | 1016.5 |
| 20260504225048 | 23 | 87 | 9.7 | 27.4 | 0.00 | 0.00 | 0.00 | 54 | 1016.6 |
| 20260504224609 | 23 | 107 | 9.7 | 27.4 | 0.00 | 0.00 | 0.00 | 54 | 1016.5 |
| 20260504224042 | 23 | 62 | 8.0 | 20.9 | 0.00 | 0.00 | 0.00 | 53 | 1016.5 |
| 20260504223546 | 24 | 96 | 4.8 | 16.1 | 0.00 | 0.00 | 0.00 | 52 | 1016.5 |
| 20260504223100 | 23 | 129 | 8.0 | 19.3 | 0.00 | 0.00 | 0.00 | 53 | 1016.5 |
| 20260504222543 | 23 | 94 | 9.7 | 19.3 | 0.00 | 0.00 | 0.00 | 53 | 1016.6 |
| 20260504222042 | 24 | 74 | 8.0 | 19.3 | 0.00 | 0.00 | 0.00 | 52 | 1016.7 |
| 20260504221556 | 24 | 153 | 8.0 | 19.3 | 0.00 | 0.00 | 0.00 | 53 | 1016.7 |
| 20260504221043 | 24 | 109 | 11.3 | 19.3 | 0.00 | 0.00 | 0.00 | 52 | 1016.7 |
| 20260504220545 | 24 | 90 | 8.0 | 24.1 | 0.00 | 0.00 | 0.00 | 53 | 1016.7 |
| 20260504220053 | 24 | 131 | 9.7 | 24.1 | 0.00 | 0.00 | 0.00 | 51 | 1016.6 |
| 20260504215543 | 24 | 61 | 9.7 | 24.1 | 0.00 | 0.00 | 0.00 | 52 | 1016.6 |
| 20260504215044 | 24 | 87 | 12.9 | 24.1 | 0.00 | 0.00 | 0.00 | 52 | 1016.5 |
| 20260504214553 | 24 | 82 | 12.9 | 24.1 | 0.00 | 0.00 | 0.00 | 52 | 1016.6 |
| 20260504214042 | 24 | 54 | 9.7 | 22.5 | 0.00 | 0.00 | 0.00 | 51 | 1016.5 |
| 20260504213544 | 24 | 70 | 8.0 | 22.5 | 0.00 | 0.00 | 0.00 | 49 | 1016.5 |
| 20260504213125 | 24 | 98 | 6.4 | 16.1 | 0.00 | 0.00 | 0.00 | 51 | 1016.5 |
| 20260504212543 | 24 | 94 | 9.7 | 16.1 | 0.00 | 0.00 | 0.00 | 51 | 1016.5 |
| 20260504212047 | 24 | 97 | 8.0 | 22.5 | 0.00 | 0.00 | 0.00 | 52 | 1016.7 |
| 20260504211559 | 24 | 86 | 9.7 | 25.7 | 0.00 | 0.00 | 0.00 | 51 | 1016.7 |
| 20260504211043 | 25 | 79 | 6.4 | 25.7 | 0.00 | 0.00 | 0.00 | 50 | 1016.7 |
| 20260504210544 | 24 | 37 | 8.0 | 19.3 | 0.00 | 0.00 | 0.00 | 49 | 1016.6 |
| 20260504210055 | 24 | 98 | 9.7 | 19.3 | 0.00 | 0.00 | 0.00 | 48 | 1016.8 |
| 20260504205544 | 25 | 117 | 11.3 | 20.9 | 0.00 | 0.00 | 0.00 | 46 | 1016.9 |
| 20260504205045 | 25 | 97 | 6.4 | 20.9 | 0.00 | 0.00 | 0.00 | 47 | 1017.0 |
| 20260504204553 | 24 | 59 | 12.9 | 20.9 | 0.00 | 0.00 | 0.00 | 50 | 1017.0 |
| 20260504204042 | 23 | 85 | 8.0 | 19.3 | 0.00 | 0.00 | 0.00 | 49 | 1017.0 |
| 20260504203544 | 24 | 94 | 9.7 | 16.1 | 0.00 | 0.00 | 0.00 | 48 | 1017.2 |
| 20260504203109 | 25 | 75 | 8.0 | 17.7 | 0.00 | 0.00 | 0.00 | 47 | 1017.1 |
| 20260504202542 | 24 | 63 | 6.4 | 17.7 | 0.00 | 0.00 | 0.00 | 47 | 1017.1 |
| 20260504202043 | 25 | 121 | 9.7 | 19.3 | 0.00 | 0.00 | 0.00 | 46 | 1017.2 |
| 20260504201548 | 25 | 139 | 6.4 | 19.3 | 0.00 | 0.00 | 0.00 | 45 | 1017.1 |
| 20260504201042 | 25 | 308 | 9.7 | 19.3 | 0.00 | 0.00 | 0.00 | 45 | 1017.0 |
| 20260504200542 | 25 | 107 | 8.0 | 29.0 | 0.00 | 0.00 | 0.00 | 45 | 1017.1 |
| 20260504200054 | 25 | 26 | 9.7 | 29.0 | 0.00 | 0.00 | 0.00 | 45 | 1017.0 |
| 20260504195541 | 25 | 104 | 6.4 | 19.3 | 0.00 | 0.00 | 0.00 | 44 | 1017.2 |
| 20260504195045 | 25 | 115 | 6.4 | 19.3 | 0.00 | 0.00 | 0.00 | 43 | 1017.2 |
| 20260504194601 | 25 | 98 | 6.4 | 16.1 | 0.00 | 0.00 | 0.00 | 44 | 1017.3 |
| 20260504194042 | 25 | 69 | 6.4 | 16.1 | 0.00 | 0.00 | 0.00 | 43 | 1017.4 |
| 20260504193545 | 25 | 135 | 6.4 | 16.1 | 0.00 | 0.00 | 0.00 | 43 | 1017.4 |
| 20260504193058 | 25 | 92 | 9.7 | 22.5 | 0.00 | 0.00 | 0.00 | 42 | 1017.4 |
| 20260504192543 | 25 | 88 | 6.4 | 30.6 | 0.00 | 0.00 | 0.00 | 43 | 1017.5 |
| 20260504192043 | 25 | 98 | 12.9 | 30.6 | 0.00 | 0.00 | 0.00 | 44 | 1017.5 |
| 20260504191555 | 25 | 91 | 8.0 | 22.5 | 0.00 | 0.00 | 0.00 | 43 | 1017.4 |
| 20260504191042 | 25 | 124 | 8.0 | 22.5 | 0.00 | 0.00 | 0.00 | 44 | 1017.5 |
| 20260504190547 | 25 | 131 | 8.0 | 30.6 | 0.00 | 0.00 | 0.00 | 42 | 1017.6 |
| 20260504190058 | 25 | 48 | 16.1 | 30.6 | 0.00 | 0.00 | 0.00 | 43 | 1017.6 |
| 20260504185542 | 25 | 65 | 11.3 | 24.1 | 0.00 | 0.00 | 0.00 | 44 | 1017.7 |
| 20260504185042 | 25 | 98 | 11.3 | 20.9 | 0.00 | 0.00 | 0.00 | 44 | 1017.8 |
| 20260504184600 | 25 | 1 | 9.7 | 20.9 | 0.00 | 0.00 | 0.00 | 41 | 1018.0 |
| 20260504184043 | 25 | 80 | 8.0 | 19.3 | 0.00 | 0.00 | 0.00 | 40 | 1017.9 |
| 20260504183547 | 25 | 49 | 9.7 | 22.5 | 0.00 | 0.00 | 0.00 | 37 | 1018.0 |
| 20260504183048 | 25 | 67 | 6.4 | 22.5 | 0.00 | 0.00 | 0.00 | 36 | 1018.1 |
| 20260504182546 | 25 | 63 | 12.9 | 22.5 | 0.00 | 0.00 | 0.00 | 37 | 1018.1 |
| 20260504182044 | 25 | 86 | 4.8 | 17.7 | 0.00 | 0.00 | 0.00 | 38 | 1018.2 |
| 20260504181548 | 25 | 96 | 3.2 | 25.7 | 0.00 | 0.00 | 0.00 | 38 | 1018.2 |
| 20260504181044 | 24 | 158 | 9.7 | 27.4 | 0.00 | 0.00 | 0.00 | 39 | 1018.2 |
| 20260504180546 | 25 | 23 | 12.9 | 27.4 | 0.00 | 0.00 | 0.00 | 37 | 1018.1 |
| 20260504180052 | 25 | 80 | 9.7 | 19.3 | 0.00 | 0.00 | 0.00 | 39 | 1018.1 |
| 20260504175542 | 25 | 62 | 9.7 | 22.5 | 0.00 | 0.00 | 0.00 | 40 | 1018.2 |
| 20260504175043 | 25 | 83 | 9.7 | 22.5 | 0.00 | 0.00 | 0.00 | 40 | 1018.3 |
| 20260504174601 | 25 | 92 | 9.7 | 22.5 | 0.00 | 0.00 | 0.00 | 39 | 1018.4 |
| 20260504174048 | 25 | 266 | 4.8 | 16.1 | 0.00 | 0.00 | 0.00 | 38 | 1018.4 |
| 20260504173547 | 25 | 97 | 4.8 | 22.5 | 0.00 | 0.00 | 0.00 | 38 | 1018.6 |
| 20260504173058 | 25 | 101 | 8.0 | 22.5 | 0.00 | 0.00 | 0.00 | 37 | 1018.7 |
| 20260504172546 | 25 | 42 | 8.0 | 22.5 | 0.00 | 0.00 | 0.00 | 38 | 1018.7 |
| 20260504172048 | 25 | 20 | 12.9 | 22.5 | 0.00 | 0.00 | 0.00 | 38 | 1018.6 |
| 20260504171552 | 25 | 62 | 4.8 | 24.1 | 0.00 | 0.00 | 0.00 | 36 | 1018.6 |
| 20260504171049 | 25 | 79 | 8.0 | 24.1 | 0.00 | 0.00 | 0.00 | 37 | 1018.8 |
| 20260504170547 | 25 | 65 | 9.7 | 24.1 | 0.00 | 0.00 | 0.00 | 38 | 1018.8 |
| 20260504151047 | 24 | 83 | 4.8 | 16.1 | 0.00 | 0.00 | 0.00 | 36 | 1019.2 |
| 20260504150545 | 23 | 20 | 9.7 | 14.5 | 0.00 | 0.00 | 0.00 | 35 | 1019.2 |
| 20260504141045 | 22 | 108 | 8.0 | 17.7 | 0.00 | 0.00 | 0.00 | 38 | 1019.3 |
| 20260504140545 | 22 | 45 | 4.8 | 14.5 | 0.00 | 0.00 | 0.00 | 41 | 1019.2 |
| 20260504140103 | 22 | 281 | 4.8 | 14.5 | 0.00 | 0.00 | 0.00 | 37 | 1019.3 |
| 20260504130547 | 21 | 68 | 6.4 | 9.7 | 0.00 | 0.00 | 0.00 | 54 | 1019.2 |
| 20260504110547 | 12 | 0 | 0.0 | 0.0 | 0.00 | 0.00 | 0.00 | 94 | 1018.5 |
| 20260504110111 | 12 | 0 | 0.0 | 0.0 | 0.00 | 0.00 | 0.00 | 94 | 1018.4 |
| 20260504100544 | 12 | 0 | 0.0 | 0.0 | 0.00 | 0.00 | 0.00 | 93 | 1018.2 |
| 20260504100104 | 12 | 0 | 0.0 | 0.0 | 0.00 | 0.00 | 0.00 | 93 | 1018.1 |
| 20260504090117 | 12 | 0 | 0.0 | 0.0 | 0.00 | 0.00 | 0.00 | 93 | 1018.4 |
| 20260504081548 | 12 | 0 | 0.0 | 0.0 | 0.00 | 0.00 | 0.00 | 92 | 1018.5 |
| 20260504081046 | 12 | 0 | 0.0 | 0.0 | 0.00 | 0.00 | 0.00 | 92 | 1018.5 |
| 20260504080548 | 12 | 0 | 0.0 | 0.0 | 0.00 | 0.00 | 0.00 | 92 | 1018.4 |
| 20260504050545 | 13 | 0 | 0.0 | 0.0 | 0.00 | 0.00 | 0.00 | 88 | 1019.5 |
| 20260504050107 | 13 | 0 | 0.0 | 0.0 | 0.00 | 0.00 | 0.00 | 87 | 1019.5 |
| 20260504045546 | 13 | 0 | 0.0 | 0.0 | 0.00 | 0.00 | 0.00 | 87 | 1019.6 |
| 20260504045046 | 13 | 0 | 0.0 | 0.0 | 0.00 | 0.00 | 0.00 | 86 | 1019.7 |
| 20260504044602 | 13 | 0 | 0.0 | 0.0 | 0.00 | 0.00 | 0.00 | 86 | 1019.6 |
| 20260504044047 | 13 | 0 | 0.0 | 0.0 | 0.00 | 0.00 | 0.00 | 86 | 1019.6 |
| 20260504043546 | 13 | 0 | 0.0 | 0.0 | 0.00 | 0.00 | 0.00 | 85 | 1019.7 |
| 20260504043056 | 13 | 0 | 0.0 | 0.0 | 0.00 | 0.00 | 0.00 | 85 | 1019.6 |
| 20260504042544 | 13 | 0 | 0.0 | 0.0 | 0.00 | 0.00 | 0.00 | 85 | 1019.6 |
| 20260504042042 | 13 | 0 | 0.0 | 0.0 | 0.00 | 0.00 | 0.00 | 85 | 1019.6 |
| 20260504041553 | 13 | 0 | 0.0 | 0.0 | 0.00 | 0.00 | 0.00 | 85 | 1019.5 |
| 20260504041043 | 13 | 0 | 0.0 | 0.0 | 0.00 | 0.00 | 0.00 | 84 | 1019.5 |
| 20260504040544 | 13 | 0 | 0.0 | 0.0 | 0.00 | 0.00 | 0.00 | 84 | 1019.5 |
| 20260504040107 | 14 | 0 | 0.0 | 0.0 | 0.00 | 0.00 | 0.00 | 84 | 1019.6 |
| 20260504035544 | 14 | 0 | 0.0 | 0.0 | 0.00 | 0.00 | 0.00 | 83 | 1019.6 |
| 20260504035043 | 14 | 0 | 0.0 | 0.0 | 0.00 | 0.00 | 0.00 | 83 | 1019.6 |